SCP
0 0 0 0 0 0 0 0 0 0 0 0 0 0 0 0 0 0 0 0 0 0 0 0 0 0 0 0 0 0 0 0 0 0 0 0 0 0
0 0 0 0 0 0 0 0 0 0 0 0 0 0 0 0 0 0 0 0 0 0 0 0 0 0 0 0 0 0 0 0 0 0 0 0 0 0
0 0 0 0 0 0 0 0 0 0 0 0 0 0 0 0 0 0 0 0 0 0 0 0 0 0 0 0 0 0 0 0 0 0 0 0 0 0
0 0 0 0 0 0 0 0 0 0 0 0 0 0 0 0 0 0 0 0 0 0 0 0 0 0 0 0 0 0 0 0 0 0 0 0 0 0
0 0 0 0 0 0 0 0 0 0 0 0 0 0 0 0 0 0 0 0 0 0 0 0 0 0 0 0 0 0 0 0 0 0 0 0 0 0
0 0 0 0 0 0 0 0 0 0 0 0 0 0 0 0 0 0 0 0 0 0 0 0 0 0 0 0 0 0 -0 0 0 0 0 0 0 0
0 0 0 0 0 0 0 0 0 0 0 0 0 0 0 0 0 0 0 0 0 0 0 0 0 0 0 0 0 0 0 0 0 0 0 0 0 0
0 0 0 0 0 0 0 0 0 0 0 0 0 0 0 0 0 0 0 0 0 0 0 0 0 0 0 0 0 0 0 0 0 0 0 0 0 0
0 0 0 0 0 0 0 0 0 0 0 0 0 0 0 0 0 0 0 0 0 0 0 0 0 0 0 0 0 0 0 0 0 0 0 0 0 0
0 0 0 0 0 0 0 0 0 0 0 0 0 0 0 0 0 0 0 0 0 0 0 0 0 0 0 0 0 0 0 0 0 0 0 0 0 0
0 0 0 0 0 0 0 0 0 0 0 0 0 0 0 0 0 0 0 0 0 0 0 0 0 0 0 0 0 0 0 0 0 0 0 0 0 0
0 0 0 0 0 0 0 0 0 0 0 0 0 0 0 0 0 0 0 0 0 0 0 0 0 0 0 0 0 0 0 0 0 0 0 0 0 0
0 0 0 0 0 0 0 0 0 0 0 0 0 0 0 0 0 0 0 0 0 0 0 0 0 0 0 0 0 0 0 0 0 0 0 0 0 0
0 0 0 0 0 0 0 0 0 0 0 0 0 0 0 0 0 0 0 0 0 0 0 0 0 0 0 0 0 0 0 0 0 0 0 0 0 0
0 0 0 0 0 0 0 0 0 0 0 0 0 0 0 0 0 0 0 0 0 0 0 0 0 0 0 0 0 0 0 0 0 0 0 0 0 0
0 0 0 0 0 0 0 0 0 0 0 0 0 0 0 0 0 0 0 0 0 0 0 0 0 0 0 0 0 0 0 0 0 0 0 0 0 0
0 0 0 0 0 0 0 0 0 0 0 0 0 0 0 0 0 0 0 0 0 0 0 0 0 0 0 0 0 0 0 0 0 0 0 0 0 0
0 0 0 0 0 0 0 0 0 0 0 0 0 0 0 0 0 0 0 0 0 0 0 0 0 0 0 0 0 0 0 0 0 0 0 0 0 0
0 0 0 0 0 0 0 0 0 0 0 0 0 0 0 0 0 0 0 0 0 0 0 0 0 0 0 0 0 0 0 0 0 0 0 0 0 0
0 0 0 0 0 0 0 0 0 0 0 0 0 0 0 0 0 0 0 0 0 0 0 0 0 0 0 0 0 0 0 0 0 0 0 0 0 0
0 0 0 0 0 0 0 0 0 0 0 0 0 0 0 0 0 0 0 0 0 0 0 0 0 0 0 0 0 0 0 0 0 0 0 0 0 0
0 0 0 0 0 0 0 0 0 0 0 0 0 0 0 0 0 0 0 0 0 0 0 0 0 0 0 0 0 0 0 0 0 0 0 0 0 0
0 0 0 0 0 0 0 0 0 0 0 0 0 0 0 0 0 0 0 0 0 0 0 0 0 0 0 0 0 0 0 0 0 0 0 0 0 0
Wind_Speed
2 2 1 1 1 2 2 2 2 2 3 3 2 2 3 2 3 3 3 4 5 5 5 5 6 6 7 7 7 8 8 8 8 8 8 9 9 9
1 1 1 1 1 1 2 2 2 3 3 2 3 3 3 3 3 3 3 5 5 5 5 6 6 7 7 7 7 7 8 9 9 9 10 10 10 9
1 2 2 1 1 1 1 2 2 3 4 3 2 3 3 3 4 3 3 3 4 6 6 7 7 7 7 7 7 7 8 9 9 10 10 10 10 10
2 2 2 1 1 1 1 1 2 3 3 4 3 3 3 3 3 4 4 3 4 5 6 7 7 8 8 8 8 8 8 8 9 10 10 10 10 10
3 3 3 2 2 1 2 2 2 2 2 3 3 2 2 2 3 3 4 3 4 4 5 6 7 7 8 8 8 8 8 9 10 10 10 10 10 10
2 3 3 3 4 3 2 3 2 2 2 2 3 3 3 2 2 3 3 3 4 4 4 5 6 7 8 9 9 9 9 9 10 10 10 10 10 10
2 3 3 4 4 4 3 3 3 2 2 2 3 2 3 2 3 2 3 4 4 3 3 3 4 4 5 7 8 9 10 10 10 10 10 10 10 10
2 3 3 3 4 4 5 5 5 4 3 3 3 3 4 4 3 3 3 3 4 2 3 4 3 4 5 5 7 9 9 10 10 11 10 10 10 10
3 2 2 2 3 3 4 4 5 6 6 5 5 5 5 4 3 4 4 4 5 3 2 5 4 5 5 5 8 9 9 10 10 10 10 10 10 10
3 3 3 4 3 3 3 3 4 4 5 5 6 6 6 5 5 4 4 5 5 4 3 4 4 4 5 4 6 8 9 9 9 10 10 10 10 10
3 3 3 4 5 3 2 3 4 5 5 5 6 7 7 7 5 3 3 3 4 4 2 3 3 4 4 4 5 7 8 8 8 8 9 10 10 9
3 3 4 5 5 4 3 4 5 5 4 4 4 5 5 5 5 5 5 4 4 4 2 3 3 2 3 3 3 3 4 6 7 7 8 9 9 6
3 3 3 5 5 5 4 4 6 5 4 4 4 4 3 3 3 4 5 5 5 5 3 2 3 2 3 3 3 3 3 3 3 4 5 7 8 8
4 3 3 5 5 5 4 5 6 4 3 3 3 4 4 4 3 4 5 5 6 7 5 3 3 3 3 3 4 3 3 3 3 3 3 4 6 8
3 4 4 5 5 4 5 6 4 3 2 3 4 4 4 4 3 3 3 3 4 5 5 5 5 4 3 4 4 3 3 3 2 3 3 3 3 3
3 3 4 4 3 4 4 3 3 3 3 4 4 4 3 2 2 2 2 2 2 3 3 4 4 5 4 5 4 4 3 3 2 2 3 3 2 3
1 1 1 2 2 2 3 3 3 2 3 3 4 4 3 3 3 2 2 2 2 3 4 2 2 3 4 3 4 4 4 3 3 2 2 2 2 3
2 1 2 3 3 4 4 4 3 3 3 3 3 3 4 3 3 2 2 2 3 3 3 3 2 1 1 2 3 4 4 3 3 2 2 2 3 3
2 3 3 4 4 4 4 4 4 4 3 3 3 4 4 3 3 3 2 2 3 3 3 2 2 2 2 4 3 3 3 3 2 2 2 2 3 3
2 3 4 4 4 4 4 4 4 4 3 3 3 3 3 3 3 3 3 3 3 3 3 2 2 2 3 4 3 3 3 3 2 2 2 2 2 3
3 3 4 4 4 4 4 4 4 4 4 3 3 3 3 3 3 3 3 3 3 3 3 3 3 3 2 1 2 2 2 2 2 2 2 2 2 2
4 4 4 4 4 4 4 4 4 4 4 3 3 3 3 3 3 4 3 3 3 3 3 3 2 1 1 1 2 3 3 2 1 2 3 2 2 2
4 3 3 4 3 3 3 4 4 4 4 4 3 3 3 3 3 3 3 3 3 3 2 2 1 1 1 2 2 2 3 3 2 2 2 3 3 4
Wind_Direction
197 191 197 220 211 208 199 195 197 244 269 275 279 286 284 275 289 285 281 287 280 271 254 246 252 255 256 257 255 254 253 252 249 244 240 240 238 237
197 179 201 225 213 204 202 204 206 213 248 262 262 283 289 288 296 290 283 289 284 275 256 249 251 255 257 256 253 252 251 249 247 241 238 238 234 233
205 196 215 206 198 215 203 205 215 212 240 266 263 278 274 286 302 300 288 276 273 266 260 256 255 256 257 256 257 258 256 253 250 245 239 237 234 231
216 205 223 207 207 222 208 221 229 217 225 259 278 284 278 287 294 293 296 287 276 271 264 260 258 256 254 251 251 251 252 251 250 247 243 238 234 232
210 208 221 204 227 236 232 235 239 238 227 241 271 276 278 289 298 294 296 294 289 285 273 263 260 260 256 252 250 248 247 245 245 243 240 237 233 229
224 221 222 213 219 225 232 236 231 240 245 252 265 275 275 284 275 290 301 300 292 295 290 278 266 263 262 257 254 252 248 245 243 240 236 233 231 229
246 241 240 232 230 226 228 226 218 232 250 258 266 275 280 282 277 276 287 297 283 273 284 276 273 269 266 258 253 252 249 247 243 239 234 229 227 227
246 260 260 252 252 247 245 238 227 230 242 244 253 264 269 265 268 268 281 292 287 263 271 280 272 271 266 257 253 251 248 247 242 237 233 227 224 223
239 251 258 262 253 252 264 266 256 251 234 224 239 251 257 255 257 266 260 265 268 274 270 277 276 271 271 267 259 254 252 248 244 238 233 226 221 218
246 242 245 264 260 249 254 267 273 268 254 238 236 248 253 252 239 251 264 273 273 263 238 263 272 269 273 270 263 255 254 252 247 239 230 224 220 219
264 251 242 253 264 250 241 262 279 285 277 262 254 258 260 258 243 237 251 264 281 278 227 248 270 275 270 262 259 254 252 253 250 243 235 226 223 222
274 268 252 252 260 240 227 238 264 278 293 301 293 285 273 265 238 225 232 243 264 273 232 229 261 279 279 257 259 260 255 252 248 244 237 230 222 221
257 267 267 261 255 246 229 234 250 265 284 288 293 293 289 273 255 239 231 231 240 252 242 223 252 247 258 284 281 265 257 262 256 247 240 232 219 213
247 261 271 274 265 257 245 258 263 266 273 283 288 290 289 285 279 266 250 244 242 249 249 230 245 251 259 272 278 281 273 264 257 256 252 238 225 221
252 263 277 284 277 267 263 264 263 256 261 274 282 282 279 282 292 289 275 267 269 263 255 240 242 249 250 259 270 271 281 288 273 260 254 247 238 223
255 276 284 285 278 280 283 267 251 248 247 263 277 281 286 291 288 290 293 306 303 297 281 257 245 241 248 256 261 269 272 276 284 278 273 265 245 227
231 279 292 299 308 305 296 280 266 259 257 263 270 281 286 290 295 298 281 284 283 296 307 313 285 255 245 257 261 268 273 271 267 269 267 276 273 251
161 251 270 277 284 291 294 293 278 266 265 264 265 267 276 284 291 293 281 280 286 293 298 307 316 308 281 265 253 269 279 282 283 266 246 254 271 267
198 255 265 270 275 280 281 280 282 282 272 267 266 268 271 276 281 284 285 287 290 292 298 305 298 285 289 298 295 242 264 287 302 302 276 259 269 280
239 259 268 273 275 276 277 279 284 289 281 275 272 268 266 268 273 275 274 279 284 292 302 305 292 277 263 278 291 304 269 264 268 277 281 268 270 284
255 262 268 271 271 271 273 276 279 282 285 283 278 274 272 268 272 273 273 274 273 284 291 292 287 283 274 282 293 311 322 298 282 272 272 266 270 274
261 264 268 270 270 270 272 274 277 278 282 279 279 279 277 268 270 276 275 273 269 272 280 292 316 314 267 260 283 295 308 328 322 318 321 289 268 263
260 262 267 273 272 273 273 274 276 276 273 271 273 275 276 275 276 274 275 270 271 277 287 300 319 316 285 273 281 288 297 311 329 334 326 315 279 275